"Period start","avg(HW err(1)/warn(2) (#))","avg(Visibility (m))","avg(Weather code (#))","avg(Precip intensity (mm/h))","min(HW err(1)/warn(2) (#))","max(HW err(1)/warn(2) (#))","std(HW err(1)/warn(2) (#))","med(HW err(1)/warn(2) (#))","min(Visibility (m))","max(Visibility (m))","std(Visibility (m))","med(Visibility (m))","min(Weather code (#))","max(Weather code (#))","std(Weather code (#))","med(Weather code (#))","min(Precip intensity (mm/h))","max(Precip intensity (mm/h))","std(Precip intensity (mm/h))","med(Precip intensity (mm/h))"
2014-10-30 00:00:00,2,22540,0,0.00,2,2,0,2,13494,29304,4999,22522,0,0,0,0,0.00,0.00,0.00,0.00
2014-10-30 00:10:00,2,18321,0,0.00,2,2,0,2,11756,31193,5564,17780,0,0,0,0,0.00,0.00,0.00,0.00
2014-10-30 00:20:00,2,21251,0,0.00,2,2,0,2,14140,26589,3922,21762,0,0,0,0,0.00,0.00,0.00,0.00
2014-10-30 00:30:00,2,15349,0,0.00,2,2,0,2,12002,19408,2369,14756,0,0,0,0,0.00,0.00,0.00,0.00
2014-10-30 00:40:00,2,19683,0,0.00,2,2,0,2,12362,25149,3772,19168,0,0,0,0,0.00,0.00,0.00,0.00
2014-10-30 00:50:00,2,19413,0,0.00,2,2,0,2,14073,26249,3552,19924,0,0,0,0,0.00,0.00,0.00,0.00
2014-10-30 01:00:00,2,18744,0,0.00,2,2,0,2,12182,23314,3665,18974,0,0,0,0,0.00,0.00,0.00,0.00
2014-10-30 01:10:00,2,15555,0,0.00,2,2,0,2,10128,21549,3220,15988,0,0,0,0,0.00,0.00,0.00,0.00
2014-10-30 01:20:00,2,17217,0,0.00,2,2,0,2,12935,27049,3797,16510,0,0,0,0,0.00,0.00,0.00,0.00
2014-10-30 01:30:00,2,19829,0,0.00,2,2,0,2,13620,26158,4037,18544,0,0,0,0,0.00,0.00,0.00,0.00
2014-10-30 01:40:00,2,20389,0,0.00,2,2,0,2,17073,24588,2466,20156,0,0,0,0,0.00,0.00,0.00,0.00
2014-10-30 01:50:00,2,24809,0,0.00,2,2,0,2,18485,32428,4110,24718,0,0,0,0,0.00,0.00,0.00,0.00
2014-10-30 02:00:00,2,17319,0,0.00,2,2,0,2,11064,24586,3567,18036,0,0,0,0,0.00,0.00,0.00,0.00
2014-10-30 02:10:00,2,16588,0,0.00,2,2,0,2,12038,20509,2023,16837,0,0,0,0,0.00,0.00,0.00,0.00
2014-10-30 02:20:00,2,14869,0,0.00,2,2,0,2,11855,19946,2034,14520,0,0,0,0,0.00,0.00,0.00,0.00
2014-10-30 02:30:00,2,14965,0,0.00,2,2,0,2,11634,18196,1941,15051,0,0,0,0,0.00,0.00,0.00,0.00
2014-10-30 02:40:00,2,22544,0,0.00,2,2,0,2,18001,28836,3322,21544,0,0,0,0,0.00,0.00,0.00,0.00
2014-10-30 02:50:00,2,26352,0,0.00,2,2,0,2,21707,30610,2741,26041,0,0,0,0,0.00,0.00,0.00,0.00
2014-10-30 03:00:00,2,19897,0,0.00,2,2,0,2,13924,24820,3153,20162,0,0,0,0,0.00,0.00,0.00,0.00
2014-10-30 03:10:00,2,22943,0,0.00,2,2,0,2,10365,31257,6544,24022,0,0,0,0,0.00,0.00,0.00,0.00
2014-10-30 03:20:00,2,19214,0,0.00,2,2,0,2,14575,25287,3451,18294,0,0,0,0,0.00,0.00,0.00,0.00
2014-10-30 03:30:00,2,23603,0,0.00,2,2,0,2,10187,35089,7760,23711,0,0,0,0,0.00,0.00,0.00,0.00
2014-10-30 03:40:00,2,9145,4,0.00,2,2,0,2,4693,13327,2955,9192,0,10,5,0,0.00,0.00,0.00,0.00
2014-10-30 03:50:00,2,13469,7,0.00,2,2,0,2,7237,21520,4532,12076,0,10,5,10,0.00,0.00,0.00,0.00
2014-10-30 04:00:00,2,10438,0,0.00,2,2,0,2,7230,16213,2916,9416,0,0,0,0,0.00,0.00,0.00,0.00
2014-10-30 04:10:00,2,7419,9,0.00,2,2,0,2,4594,10779,1639,7604,0,10,3,10,0.00,0.00,0.00,0.00
2014-10-30 04:20:00,2,8637,10,0.00,2,2,0,2,5852,11454,1781,8461,10,10,0,10,0.00,0.00,0.00,0.00
2014-10-30 04:30:00,2,12714,10,0.00,2,2,0,2,8502,19132,3076,12696,10,10,0,10,0.00,0.00,0.00,0.00
2014-10-30 04:40:00,2,16366,2,0.00,2,2,0,2,8534,28646,6565,14598,0,10,4,0,0.00,0.00,0.00,0.00
2014-10-30 04:50:00,2,17725,0,0.00,2,2,0,2,9608,26105,6566,18383,0,0,0,0,0.00,0.00,0.00,0.00
2014-10-30 05:00:00,2,14940,0,0.00,2,2,0,2,9817,23554,4331,13768,0,0,0,0,0.00,0.00,0.00,0.00
2014-10-30 05:10:00,2,18604,0,0.00,2,2,0,2,9444,33769,8340,15932,0,0,0,0,0.00,0.00,0.00,0.00
2014-10-30 05:20:00,2,11659,0,0.00,2,2,0,2,8709,15015,2044,11968,0,0,0,0,0.00,0.00,0.00,0.00
2014-10-30 05:30:00,2,6537,7,0.00,2,2,0,2,3914,12646,2519,6412,0,10,5,10,0.00,0.00,0.00,0.00
2014-10-30 05:40:00,2,4164,10,0.00,2,2,0,2,2891,4943,725,4544,10,10,0,10,0.00,0.00,0.00,0.00
2014-10-30 05:50:00,2,3374,10,0.00,2,2,0,2,2232,4359,650,3434,10,10,0,10,0.00,0.00,0.00,0.00
2014-10-30 06:00:00,2,6251,10,0.00,2,2,0,2,3633,9646,1899,5730,10,10,0,10,0.00,0.00,0.00,0.00
2014-10-30 06:10:00,2,8186,10,0.00,2,2,0,2,3869,10944,2153,8536,10,10,0,10,0.00,0.00,0.00,0.00
2014-10-30 06:20:00,2,11786,10,0.00,2,2,0,2,7345,18788,3699,11172,10,10,0,10,0.00,0.00,0.00,0.00
2014-10-30 06:30:00,2,17827,1,0.00,2,2,0,2,9491,31202,7842,15931,0,10,3,0,0.00,0.00,0.00,0.00
2014-10-30 06:40:00,2,9320,1,0.00,2,2,0,2,5679,17390,3208,8542,0,10,3,0,0.00,0.00,0.00,0.00
2014-10-30 06:50:00,2,5752,10,0.00,2,2,0,2,2724,12687,2912,5096,10,10,0,10,0.00,0.00,0.00,0.00
2014-10-30 07:00:00,2,5582,10,0.00,2,2,0,2,4224,9155,1591,4888,10,10,0,10,0.00,0.00,0.00,0.00
2014-10-30 07:10:00,2,11320,10,0.00,2,2,0,2,6066,20007,4456,9914,10,10,0,10,0.00,0.00,0.00,0.00
2014-10-30 07:20:00,2,18582,4,0.00,2,2,0,2,15824,21754,2074,18140,0,10,5,0,0.00,0.00,0.00,0.00
2014-10-30 07:30:00,2,11786,0,0.00,2,2,0,2,3858,18013,3982,11695,0,0,0,0,0.00,0.00,0.00,0.00
2014-10-30 07:40:00,2,6844,8,0.00,2,2,0,2,5137,9093,1317,6840,0,10,4,10,0.00,0.00,0.00,0.00
2014-10-30 07:50:00,2,4027,10,0.00,2,2,0,2,2952,5961,953,3720,10,10,0,10,0.00,0.00,0.00,0.00
2014-10-30 08:00:00,2,5878,10,0.00,2,2,0,2,2670,8885,1882,5650,10,10,0,10,0.00,0.00,0.00,0.00
2014-10-30 08:10:00,2,6851,10,0.00,2,2,0,2,3605,10238,2164,6380,10,10,0,10,0.00,0.00,0.00,0.00
2014-10-30 08:20:00,2,11368,10,0.00,2,2,0,2,6968,15003,2650,11392,10,10,0,10,0.00,0.00,0.00,0.00
2014-10-30 08:30:00,2,20513,2,0.00,2,2,0,2,12099,27480,5050,18617,0,10,4,0,0.00,0.00,0.00,0.00
2014-10-30 08:40:00,2,20829,0,0.00,2,2,0,2,13255,27528,4515,21584,0,0,0,0,0.00,0.00,0.00,0.00
2014-10-30 08:50:00,2,15159,0,0.00,2,2,0,2,13377,18685,1551,14706,0,0,0,0,0.00,0.00,0.00,0.00
2014-10-30 09:00:00,2,8939,2,0.00,2,2,0,2,5382,15447,3041,8637,0,10,4,0,0.00,0.00,0.00,0.00
2014-10-30 09:10:00,2,7195,10,0.00,2,2,0,2,4475,10613,1988,6662,10,10,0,10,0.00,0.00,0.00,0.00
2014-10-30 09:20:00,2,4633,10,0.00,2,2,0,2,3625,6751,904,4536,10,10,0,10,0.00,0.00,0.00,0.00
2014-10-30 09:30:00,2,6364,10,0.00,2,2,0,2,3759,8965,1616,6023,10,10,0,10,0.00,0.00,0.00,0.00
2014-10-30 09:40:00,2,6385,10,0.00,2,2,0,2,4845,9635,1419,5908,10,10,0,10,0.00,0.00,0.00,0.00
2014-10-30 09:50:00,2,4510,10,0.00,2,2,0,2,3303,7144,1140,4276,10,10,0,10,0.00,0.00,0.00,0.00
2014-10-30 10:00:00,2,3707,10,0.00,2,2,0,2,2590,6754,1151,3360,10,10,0,10,0.00,0.00,0.00,0.00
2014-10-30 10:10:00,2,6013,10,0.00,2,2,0,2,3090,12990,2569,5976,10,10,0,10,0.00,0.00,0.00,0.00
2014-10-30 10:20:00,2,24009,8,0.00,2,2,0,2,17146,35022,6561,22874,0,10,4,10,0.00,0.00,0.00,0.00
2014-10-30 10:30:00,2,36289,0,0.00,2,2,0,2,27470,41817,3725,36965,0,0,0,0,0.00,0.00,0.00,0.00
2014-10-30 10:40:00,2,26341,0,0.00,2,2,0,2,17543,33529,4896,25790,0,0,0,0,0.00,0.00,0.00,0.00
2014-10-30 10:50:00,2,45344,0,0.00,2,2,0,2,37361,50000,4115,45636,0,0,0,0,0.00,0.00,0.00,0.00
2014-10-30 11:00:00,2,48309,0,0.00,2,2,0,2,44469,50000,1592,48339,0,0,0,0,0.00,0.00,0.00,0.00
2014-10-30 11:10:00,2,47138,0,0.00,2,2,0,2,38216,50000,3505,47874,0,0,0,0,0.00,0.00,0.00,0.00
2014-10-30 11:20:00,2,43403,0,0.00,2,2,0,2,34389,49152,4455,44224,0,0,0,0,0.00,0.00,0.00,0.00
2014-10-30 11:30:00,2,35505,0,0.00,2,2,0,2,30291,39757,2881,35132,0,0,0,0,0.00,0.00,0.00,0.00
2014-10-30 11:40:00,2,28157,0,0.00,2,2,0,2,20130,38210,5108,29158,0,0,0,0,0.00,0.00,0.00,0.00
2014-10-30 11:50:00,2,32959,0,0.00,2,2,0,2,15995,45917,10349,35710,0,0,0,0,0.00,0.00,0.00,0.00
2014-10-30 12:00:00,2,37542,0,0.00,2,2,0,2,30753,48266,5508,35690,0,0,0,0,0.00,0.00,0.00,0.00
2014-10-30 12:10:00,2,24892,0,0.00,2,2,0,2,9757,39449,9818,23876,0,0,0,0,0.00,0.00,0.00,0.00
2014-10-30 12:20:00,2,14262,0,0.00,2,2,0,2,10048,22258,3475,13872,0,0,0,0,0.00,0.00,0.00,0.00
2014-10-30 12:30:00,2,11797,0,0.00,2,2,0,2,4716,22136,5327,10356,0,0,0,0,0.00,0.00,0.00,0.00
2014-10-30 12:40:00,2,15316,0,0.00,2,2,0,2,8047,24091,5526,13460,0,0,0,0,0.00,0.00,0.00,0.00
2014-10-30 12:50:00,2,15757,0,0.00,2,2,0,2,10008,23955,5006,14998,0,0,0,0,0.00,0.00,0.00,0.00
2014-10-30 13:00:00,2,9134,0,0.00,2,2,0,2,6421,12199,1610,8993,0,0,0,0,0.00,0.00,0.00,0.00
2014-10-30 13:10:00,2,17654,0,0.00,2,2,0,2,11950,25121,5095,16894,0,0,0,0,0.00,0.00,0.00,0.00
2014-10-30 13:20:00,2,21662,0,0.00,2,2,0,2,14443,29749,5424,20362,0,0,0,0,0.00,0.00,0.00,0.00
2014-10-30 13:30:00,2,29084,0,0.00,2,2,0,2,18121,40629,7217,28627,0,0,0,0,0.00,0.00,0.00,0.00
2014-10-30 13:40:00,2,46528,0,0.00,2,2,0,2,38230,50000,3703,48340,0,0,0,0,0.00,0.00,0.00,0.00
2014-10-30 13:50:00,2,45212,0,0.00,2,2,0,2,41392,50000,2885,45244,0,0,0,0,0.00,0.00,0.00,0.00
2014-10-30 14:00:00,2,48091,0,0.00,2,2,0,2,44899,50000,1680,48342,0,0,0,0,0.00,0.00,0.00,0.00
2014-10-30 14:10:00,2,48984,0,0.00,2,2,0,2,46901,50000,1248,49841,0,0,0,0,0.00,0.00,0.00,0.00
2014-10-30 14:20:00,2,49777,0,0.00,2,2,0,2,47921,50000,620,50000,0,0,0,0,0.00,0.00,0.00,0.00
2014-10-30 14:30:00,2,49947,0,0.00,2,2,0,2,49469,50000,159,50000,0,0,0,0,0.00,0.00,0.00,0.00
2014-10-30 14:40:00,2,49566,0,0.00,2,2,0,2,47954,50000,731,50000,0,0,0,0,0.00,0.00,0.00,0.00
2014-10-30 14:50:00,2,49427,0,0.00,2,2,0,2,45928,50000,1267,50000,0,0,0,0,0.00,0.00,0.00,0.00
2014-10-30 15:00:00,2,50000,0,0.00,2,2,0,2,50000,50000,0,50000,0,0,0,0,0.00,0.00,0.00,0.00
2014-10-30 15:10:00,2,49986,0,0.00,2,2,0,2,49863,50000,41,50000,0,0,0,0,0.00,0.00,0.00,0.00
2014-10-30 15:20:00,2,50000,0,0.00,2,2,0,2,50000,50000,0,50000,0,0,0,0,0.00,0.00,0.00,0.00
2014-10-30 15:30:00,2,50000,0,0.00,2,2,0,2,50000,50000,0,50000,0,0,0,0,0.00,0.00,0.00,0.00
2014-10-30 15:40:00,2,50000,0,0.00,2,2,0,2,50000,50000,0,50000,0,0,0,0,0.00,0.00,0.00,0.00
2014-10-30 15:50:00,2,50000,0,0.00,2,2,0,2,50000,50000,0,50000,0,0,0,0,0.00,0.00,0.00,0.00
2014-10-30 16:00:00,2,50000,0,0.00,2,2,0,2,50000,50000,0,50000,0,0,0,0,0.00,0.00,0.00,0.00
2014-10-30 16:10:00,2,49395,0,0.00,2,2,0,2,47089,50000,1037,50000,0,0,0,0,0.00,0.00,0.00,0.00
2014-10-30 16:20:00,2,50000,0,0.00,2,2,0,2,50000,50000,0,50000,0,0,0,0,0.00,0.00,0.00,0.00
2014-10-30 16:30:00,2,50000,0,0.00,2,2,0,2,50000,50000,0,50000,0,0,0,0,0.00,0.00,0.00,0.00
2014-10-30 16:40:00,2,50000,0,0.00,2,2,0,2,50000,50000,0,50000,0,0,0,0,0.00,0.00,0.00,0.00
2014-10-30 16:50:00,2,49953,0,0.00,2,2,0,2,49533,50000,140,50000,0,0,0,0,0.00,0.00,0.00,0.00
2014-10-30 17:00:00,2,50000,0,0.00,2,2,0,2,50000,50000,0,50000,0,0,0,0,0.00,0.00,0.00,0.00
2014-10-30 17:10:00,2,50000,0,0.00,2,2,0,2,50000,50000,0,50000,0,0,0,0,0.00,0.00,0.00,0.00
2014-10-30 17:20:00,2,50000,0,0.00,2,2,0,2,50000,50000,0,50000,0,0,0,0,0.00,0.00,0.00,0.00
2014-10-30 17:30:00,2,50000,0,0.00,2,2,0,2,50000,50000,0,50000,0,0,0,0,0.00,0.00,0.00,0.00
2014-10-30 17:40:00,2,49978,0,0.00,2,2,0,2,49784,50000,65,50000,0,0,0,0,0.00,0.00,0.00,0.00
2014-10-30 17:50:00,2,50000,0,0.00,2,2,0,2,50000,50000,0,50000,0,0,0,0,0.00,0.00,0.00,0.00
2014-10-30 18:00:00,2,50000,0,0.00,2,2,0,2,50000,50000,0,50000,0,0,0,0,0.00,0.00,0.00,0.00
2014-10-30 18:10:00,2,49833,0,0.00,2,2,0,2,48334,50000,500,50000,0,0,0,0,0.00,0.00,0.00,0.00
2014-10-30 18:20:00,2,49957,0,0.00,2,2,0,2,49574,50000,128,50000,0,0,0,0,0.00,0.00,0.00,0.00
2014-10-30 18:30:00,2,50000,0,0.00,2,2,0,2,50000,50000,0,50000,0,0,0,0,0.00,0.00,0.00,0.00
2014-10-30 18:40:00,2,50000,0,0.00,2,2,0,2,50000,50000,0,50000,0,0,0,0,0.00,0.00,0.00,0.00
2014-10-30 18:50:00,2,50000,0,0.00,2,2,0,2,50000,50000,0,50000,0,0,0,0,0.00,0.00,0.00,0.00
2014-10-30 19:00:00,2,50000,0,0.00,2,2,0,2,50000,50000,0,50000,0,0,0,0,0.00,0.00,0.00,0.00
2014-10-30 19:10:00,2,50000,0,0.00,2,2,0,2,50000,50000,0,50000,0,0,0,0,0.00,0.00,0.00,0.00
2014-10-30 19:20:00,2,50000,0,0.00,2,2,0,2,50000,50000,0,50000,0,0,0,0,0.00,0.00,0.00,0.00
2014-10-30 19:30:00,2,50000,0,0.00,2,2,0,2,50000,50000,0,50000,0,0,0,0,0.00,0.00,0.00,0.00
2014-10-30 19:40:00,2,50000,0,0.00,2,2,0,2,50000,50000,0,50000,0,0,0,0,0.00,0.00,0.00,0.00
2014-10-30 19:50:00,2,50000,0,0.00,2,2,0,2,50000,50000,0,50000,0,0,0,0,0.00,0.00,0.00,0.00
2014-10-30 20:00:00,2,49987,0,0.00,2,2,0,2,49866,50000,40,50000,0,0,0,0,0.00,0.00,0.00,0.00
2014-10-30 20:10:00,2,50000,0,0.00,2,2,0,2,50000,50000,0,50000,0,0,0,0,0.00,0.00,0.00,0.00
2014-10-30 20:20:00,2,50000,0,0.00,2,2,0,2,50000,50000,0,50000,0,0,0,0,0.00,0.00,0.00,0.00
2014-10-30 20:30:00,2,50000,0,0.00,2,2,0,2,50000,50000,0,50000,0,0,0,0,0.00,0.00,0.00,0.00
2014-10-30 20:40:00,2,41275,0,0.00,2,2,0,2,32967,50000,6916,37312,0,0,0,0,0.00,0.00,0.00,0.00
2014-10-30 20:50:00,2,48199,0,0.00,2,2,0,2,41597,50000,2709,50000,0,0,0,0,0.00,0.00,0.00,0.00
2014-10-30 21:00:00,2,49974,0,0.00,2,2,0,2,49740,50000,78,50000,0,0,0,0,0.00,0.00,0.00,0.00
2014-10-30 21:10:00,2,50000,0,0.00,2,2,0,2,50000,50000,0,50000,0,0,0,0,0.00,0.00,0.00,0.00
2014-10-30 21:20:00,2,35967,0,0.00,2,2,0,2,20675,49422,8986,36310,0,0,0,0,0.00,0.00,0.00,0.00
2014-10-30 21:30:00,2,36717,0,0.00,2,2,0,2,22548,48573,7267,36646,0,0,0,0,0.00,0.00,0.00,0.00
2014-10-30 21:40:00,2,42980,0,0.00,2,2,0,2,30006,50000,6492,45102,0,0,0,0,0.00,0.00,0.00,0.00
2014-10-30 21:50:00,2,49824,0,0.00,2,2,0,2,48236,50000,529,50000,0,0,0,0,0.00,0.00,0.00,0.00
2014-10-30 22:00:00,2,49956,0,0.00,2,2,0,2,49562,50000,131,50000,0,0,0,0,0.00,0.00,0.00,0.00
2014-10-30 22:10:00,2,50000,0,0.00,2,2,0,2,50000,50000,0,50000,0,0,0,0,0.00,0.00,0.00,0.00
2014-10-30 22:20:00,2,50000,0,0.00,2,2,0,2,50000,50000,0,50000,0,0,0,0,0.00,0.00,0.00,0.00
2014-10-30 22:30:00,2,50000,0,0.00,2,2,0,2,50000,50000,0,50000,0,0,0,0,0.00,0.00,0.00,0.00
2014-10-30 22:40:00,2,50000,0,0.00,2,2,0,2,50000,50000,0,50000,0,0,0,0,0.00,0.00,0.00,0.00
2014-10-30 22:50:00,2,50000,0,0.00,2,2,0,2,50000,50000,0,50000,0,0,0,0,0.00,0.00,0.00,0.00
2014-10-30 23:00:00,2,50000,0,0.00,2,2,0,2,50000,50000,0,50000,0,0,0,0,0.00,0.00,0.00,0.00
2014-10-30 23:10:00,2,49986,0,0.00,2,2,0,2,49857,50000,43,50000,0,0,0,0,0.00,0.00,0.00,0.00
2014-10-30 23:20:00,2,50000,0,0.00,2,2,0,2,50000,50000,0,50000,0,0,0,0,0.00,0.00,0.00,0.00
2014-10-30 23:30:00,2,50000,0,0.00,2,2,0,2,50000,50000,0,50000,0,0,0,0,0.00,0.00,0.00,0.00
2014-10-30 23:40:00,2,50000,0,0.00,2,2,0,2,50000,50000,0,50000,0,0,0,0,0.00,0.00,0.00,0.00
2014-10-30 23:50:00,2,50000,0,0.00,2,2,0,2,50000,50000,0,50000,0,0,0,0,0.00,0.00,0.00,0.00
